Time,TemperatureF,DewpointF,PressureIn,WindDirection,WindDirectionDegrees,WindSpeedMPH,WindSpeedGustMPH,Humidity,HourlyPrecipIn,Conditions,Clouds,dailyrainin,SoftwareType,DateUTC
2013-04-20 00:00:00,67.0,63.7,29.99,NNW,344,8.0,21.0,89,0.02,,---,0.40,VWS V14.01,2013-04-20 04:00:00,
2013-04-20 01:00:00,63.4,61.0,30.01,West,281,4.0,17.0,92,0.12,,---,0.10,VWS V14.01,2013-04-20 05:00:00,
2013-04-20 02:00:00,61.5,59.5,30.00,WNW,299,4.0,14.0,93,0.18,,---,0.18,VWS V14.01,2013-04-20 06:00:00,
2013-04-20 03:00:00,60.2,58.5,29.99,NW,317,8.0,12.0,94,0.08,,---,0.18,VWS V14.01,2013-04-20 07:00:00,
2013-04-20 04:00:00,60.0,58.3,30.01,West,276,7.0,12.0,94,0.01,,---,0.19,VWS V14.01,2013-04-20 08:00:00,
2013-04-20 05:00:00,58.5,56.8,30.02,North,360,6.0,11.0,94,0.04,,---,0.22,VWS V14.01,2013-04-20 09:00:00,
2013-04-20 06:00:00,54.5,52.8,30.04,West,281,6.0,15.0,94,0.13,,---,0.32,VWS V14.01,2013-04-20 10:00:00,
2013-04-20 07:00:00,53.1,51.4,30.06,NW,320,2.0,14.0,94,0.11,,---,0.33,VWS V14.01,2013-04-20 11:00:00,
2013-04-20 08:00:00,52.5,51.1,30.08,NW,325,4.0,11.0,95,0.08,,---,0.40,VWS V14.01,2013-04-20 12:00:00,
2013-04-20 09:00:00,51.4,49.7,30.11,NNW,327,5.0,11.0,94,0.07,,---,0.40,VWS V14.01,2013-04-20 13:00:00,
2013-04-20 10:00:00,51.2,49.2,30.13,NW,323,3.0,12.0,93,0.01,,---,0.41,VWS V14.01,2013-04-20 14:00:00,
2013-04-20 11:00:00,50.6,48.7,30.14,NNW,332,6.0,10.0,93,0.04,,---,0.44,VWS V14.01,2013-04-20 15:00:00,
2013-04-20 12:00:00,51.0,48.8,30.14,NW,305,4.0,11.0,92,0.04,,---,0.45,VWS V14.01,2013-04-20 16:00:00,
2013-04-20 13:00:00,51.9,49.7,30.13,NNW,344,7.0,14.0,92,0.02,,---,0.46,VWS V14.01,2013-04-20 17:00:00,
2013-04-20 14:00:00,53.0,50.2,30.14,NW,313,7.0,10.0,90,0.01,,---,0.46,VWS V14.01,2013-04-20 18:00:00,
2013-04-20 15:00:00,53.6,51.0,30.11,North,355,3.0,9.0,91,0.00,,---,0.46,VWS V14.01,2013-04-20 19:00:00,
2013-04-20 16:00:00,54.9,51.4,30.13,NW,314,5.0,10.0,88,0.00,,---,0.46,VWS V14.01,2013-04-20 20:00:00,
2013-04-20 17:00:00,58.8,53.0,30.11,North,5,8.0,14.0,81,0.00,,---,0.46,VWS V14.01,2013-04-20 21:00:00,
2013-04-20 18:00:00,59.9,53.7,30.11,NNE,27,7.0,13.0,80,0.00,,---,0.46,VWS V14.01,2013-04-20 22:00:00,
2013-04-20 19:00:00,60.7,53.8,30.11,North,355,6.0,14.0,78,0.00,,---,0.46,VWS V14.01,2013-04-20 23:00:00,
2013-04-20 20:00:00,60.5,53.3,30.13,NNE,14,8.0,15.0,77,0.00,,---,0.46,VWS V14.01,2013-04-21 00:00:00,
2013-04-20 21:00:00,60.9,53.3,30.15,NNE,15,6.0,15.0,76,0.00,,---,0.46,VWS V14.01,2013-04-21 01:00:00,
2013-04-20 22:00:00,61.0,53.4,30.18,NNW,339,8.0,17.0,76,0.00,,---,0.46,VWS V14.01,2013-04-21 02:00:00,
2013-04-20 23:00:00,60.9,53.7,30.19,NE,39,8.0,20.0,77,0.00,,---,0.46,VWS V14.01,2013-04-21 03:00:00,